STARLINK-31589, 59654

Orbit data source: Space-Track

STARLINK-31589, 59654 is a payload satellite owned by SpaceX/Seattle (US) in LEO that was launched on Mon, 06 May 2024 UTC via an FALCON 9 launch vehicle from the Air Force Eastern Test Range (AFETR). Payload-class satellites include a variety of spacecraft equipped with specific instruments for various scientific and technological missions. These include communications satellites like Starlink; space stations such as the ISS; scientific satellites like the Hubble; Earth observation satellites from companies like Planet Labs, Umbra, and HawkEye 360; GPS; miniature CubeSats for education and research; and military/defense satellites.

Loading next visibility...
Identifier
59654, 2024-084A
Orbit
LEO
Last TLE update
7 hours ago
Origin
Manufacturer
SpaceX/Seattle
Mission
Operational spacecraft
Bus & Motor
STARLINK V2M, Unknown motor
Mass
730 kg wet, ~700 kg dry
Launch date (UTC)
2024-05-06 (1 year ago)
Launch vehicle
FALCON 9
Launch site
Air Force Eastern Test Range (AFETR)
Object type
Payload
Rocket body
Debris
Shape & HBR
Unknown
Radar Cross Section
Large (>1 m²)

Expand to show TLE details & history

TLE from 7 hours ago
0 STARLINK-31589
1 59654U 24084A   25186.84624451 -.00002153  00000-0 -68766-4 0  9993
2 59654  43.0021 355.6718 0000599 259.8937 100.1847 15.27564766 66655
Epoch: 2025-07-05T20:18Z
TLE epoch observation values (Epoch: 2025-07-05T20:18:35.525Z)
Latitude
-0.00003°
Longitude
126.94531°
Altitude
482.943 km
Speed
7.626 km/s
True Right ascension
23h 42m 41s
True Declination
0° 00' 00"
Sunlit
Object was in daylight at epoch
Visualization orbit readout
Latitude
14.30763°
Longitude
-70.47637°
Altitude
482.232 km
Speed
7.627 km/s
Apparent Right ascension
07h 42m 03s
Apparent Declination
-19° 21' 23"
Sunlit
Object is in daylight
Visualization observer readout
Local Sidereal Time
15:13:43
Azimuth
268.782° W
Elevation
-29.633°
Doppler factor
1
Orbital elements
Apogee altitude
485.451 km
Perigee altitude
484.628 km
Semi-major axis
6,863.177 km
Eccentricity
0.00006
Inclination
43.0021°
RAAN
355.6718°
Arg. of periapsis
259.8937°
True anomaly
Unknown
Mean anomaly
100.1847°
Eccentric anomaly
Unknown
Mean motion
3.81729 °/min
Orbital period
94.31 mins
BSTAR
-0.000068766
Loading maneuver chart data...
Loading SW <> Apogee altitude chart data...
Loading historical data...
Loading historical data...
Loading historical data...
Loading historical data...
Loading historical data...
Loading historical data...
Loading historical data...

STARLINK-31589 Visibility forecast

Observer location: undefined°, undefined°

Span
Click to sort rows by Start time (UTC) header in descending order
Start Az.
Max El. time (UTC)
Max El. Az.
Max El.
End time (UTC)
End Az.
4 mins2025-07-06 13:45:44.137Z178.356° S2025-07-06 13:47:44.137Z139.922° SSE17.468°2025-07-06 13:49:44.137Z104.24° ESE
6 mins2025-07-06 15:23:44.137Z243.244° WSW2025-07-06 15:25:44.137Z218.237° SW42.782°2025-07-06 15:29:44.137Z73.274° E
6 mins2025-07-06 17:02:44.137Z284.792° WNW2025-07-06 17:04:44.137Z326.827° NNW36.664°2025-07-06 17:08:44.137Z74.053° E
6 mins2025-07-06 18:41:44.137Z291.325° WNW2025-07-06 18:44:44.137Z58.439° ENE42.596°2025-07-06 18:47:44.137Z99.42° ESE
4 mins2025-07-06 20:21:44.137Z252.925° W2025-07-06 20:22:44.137Z226.832° WSW27.241°2025-07-06 20:25:44.137Z153.554° SSE
|